Weather History for Dansville, NY

Change the Weather History Date:

Thursday, April 24, 2014

  Actual Average Record
Temperature  
Mean Temperature 40 °F -  
Max Temperature 55 °F 60 °F 88 °F (1985)
Min Temperature 27 °F 37 °F 21 °F (2003)
Degree Days  
Heating Degree Days 24    
Moisture  
Dew Point 22 °F    
Average Humidity 52    
Maximum Humidity 81    
Minimum Humidity 27    
Precipitation  
Precipitation 0.00 in - - ()
Sea Level Pressure  
Sea Level Pressure 30.13 in    
Wind  
Wind Speed 5 mph (NNW)    
Max Wind Speed 16 mph    
Max Gust Speed 22 mph    
Visibility 10 miles    
Events      
Averages and records for this station are not official NWS values.
T = Trace of Precipitation, MM = Missing Value Source: NWS Daily Summary

Daily Weather History Graph

Daily Weather History Graph

Search for Another Location

Airport:

Trip Planner

Search our weather history database for the weather conditions in past years. The results will help you decide how hot, cold, wet, or windy it might be!

Date:

Astronomy

Apr. 24, 2014 Rise Set
Actual Time 6:15 AM EDT 8:03 PM EDT
Civil Twilight 5:45 AM EDT 8:33 PM EDT
Nautical Twilight 5:09 AM EDT 9:09 PM EDT
Astronomical Twilight 4:29 AM EDT 9:49 PM EDT
Moon 3:32 AM EDT (4/24) 3:10 PM EDT (4/24)
Length of Visible Light 14h 47m
Length of Day
13h 47m
Waning Crescent, 24% of the Moon is Illuminated
Apr 24
Waning Crescent
Apr 29
New
May 6
First Quarter
May 14
Full
May 21
Last Quarter

Hourly Weather History & Observations

Time (EDT) Temp. Windchill Dew Point Humidity Pressure Visibility Wind Dir Wind Speed Gust Speed Precip Events Conditions
12:54 AM 30.9 °F - 24.1 °F 76% 30.09 in 10.0 mi Calm Calm - N/A   Clear
1:54 AM 28.0 °F - 23.0 °F 81% 30.10 in 10.0 mi Calm Calm - N/A   Clear
2:54 AM 28.9 °F 23.9 °F 21.9 °F 75% 30.10 in 10.0 mi South 4.6 mph - N/A   Clear
3:54 AM 27.0 °F 23.0 °F 21.9 °F 81% 30.10 in 10.0 mi Variable 3.5 mph - N/A   Clear
4:54 AM 27.0 °F 23.0 °F 21.0 °F 78% 30.11 in 10.0 mi ESE 3.5 mph - N/A   Clear
5:54 AM 27.0 °F 23.0 °F 21.9 °F 81% 30.14 in 10.0 mi SSE 3.5 mph - N/A   Clear
6:54 AM 27.0 °F - 21.9 °F 81% 30.16 in 10.0 mi Calm Calm - N/A   Clear
7:54 AM 32.0 °F 28.7 °F 25.0 °F 75% 30.17 in 10.0 mi South 3.5 mph - N/A   Clear
8:54 AM 39.0 °F 34.0 °F 25.0 °F 57% 30.17 in 10.0 mi Variable 6.9 mph - N/A   Clear
9:54 AM 44.1 °F 36.8 °F 23.0 °F 43% 30.17 in 10.0 mi NNW 16.1 mph - N/A   Clear
10:54 AM 46.9 °F - 21.9 °F 37% 30.18 in 10.0 mi NW 16.1 mph - N/A   Clear
11:54 AM 48.9 °F - 21.9 °F 35% 30.17 in 10.0 mi NNW 12.7 mph - N/A   Clear
12:54 PM 50.0 °F - 21.0 °F 32% 30.16 in 10.0 mi NNW 8.1 mph - N/A   Clear
1:54 PM 52.0 °F - 21.0 °F 30% 30.15 in 10.0 mi NNW 15.0 mph - N/A   Clear
2:54 PM 54.0 °F - 21.9 °F 29% 30.13 in 10.0 mi North 15.0 mph 21.9 mph N/A   Clear
3:54 PM 54.0 °F - 21.0 °F 28% 30.11 in 10.0 mi NW 10.4 mph - N/A   Clear
4:54 PM 54.0 °F - 21.0 °F 28% 30.10 in 10.0 mi NNW 11.5 mph - N/A   Clear
5:54 PM 54.0 °F - 21.0 °F 28% 30.11 in 10.0 mi NNW 11.5 mph - N/A   Clear
6:54 PM 52.0 °F - 19.0 °F 27% 30.11 in 10.0 mi NNW 8.1 mph - N/A   Clear
7:54 PM 48.0 °F - 21.0 °F 34% 30.11 in 10.0 mi North 6.9 mph - N/A   Clear
8:54 PM 45.0 °F - 23.0 °F 42% 30.12 in 10.0 mi Calm Calm - N/A   Clear
9:54 PM 41.0 °F - 26.1 °F 55% 30.12 in 10.0 mi Calm Calm - N/A   Clear
10:54 PM 39.0 °F 35.7 °F 24.1 °F 55% 30.10 in 10.0 mi SSE 4.6 mph - N/A   Clear
11:54 PM 36.0 °F 33.3 °F 25.0 °F 64% 30.09 in 10.0 mi SE 3.5 mph - N/A   Clear